Regional Weather Roundup
Issued by NWS

Home | Current Version | Previous Version | Graphics & Text | Print | Product List | Glossary On
Versions: 1 2 3 4 5 6 7 8 9 10 11 12 13 14 15 16 17 18 19 20 21 22 23 24 25 26 27 28 29 30 31 32 33 34 35 36 37 38 39 40 41 42 43 44 45 46 47 48 49 50
918
ASUS45 KCYS 241910
RWRWY

WYOMING REGIONAL WEATHER ROUNDUP
NATIONAL WEATHER SERVICE CHEYENNE WY
100 PM MDT SAT JUN 24 2017

NOTE:  "FAIR" INDICATES FEW OR NO CLOUDS BELOW 12,000 FEET
WITH NO SIGNIFICANT WEATHER AND/OR OBSTRUCTIONS TO VISIBILITY.

WYZ001-242000-
YELLOWSTONE NATIONAL PARK

CITY           SKY/WX    TMP DP  RH WIND       PRES   REMARKS
LK YELLOWSTONE   N/A     60  35  39 VRB6      30.45S
W YELLOWSTONE  NOT AVBL

$$
WYZ002>013-054>058-071-098>099-242000-
NORTHERN WYOMING

CITY           SKY/WX    TMP DP  RH WIND       PRES   REMARKS
JACKSON        SUNNY     66  36  32 CALM      30.35F
CODY           FAIR      67  34  29 NE9       30.35F
GREYBULL       FAIR      74  28  18 VRB5      30.29F
WORLAND        FAIR      72  34  24 NE7       30.31F
SHERIDAN       FAIR      71  35  26 N12G23    30.33F
BUFFALO        FAIR      63  35  35 N9G24     30.37S
GILLETTE       FAIR      70  30  22 NW14G20   30.33S
NEWCASTLE      FAIR      64  30  27 NW20G26   30.34S

$$
WYZ014>020-022>026-101>103-242000-
CENTRAL WYOMING

CITY           SKY/WX    TMP DP  RH WIND       PRES   REMARKS
BIG PINEY      FAIR      67  28  23 MISG      30.39F
PINEDALE       FAIR      64  30  27 N8        30.41S
DUBOIS         FAIR      64  30  27 SE10G17   30.38F
LANDER         FAIR      68  36  30 E9        30.34F
RIVERTON       FAIR      67  30  25 SE6       30.36F
CASPER         FAIR      69  30  23 NW7       30.35F
DOUGLAS        PTSUNNY   71  33  24 NW8       30.34F

$$
WYZ021-027>030-104>119-242000-
SOUTHERN WYOMING

CITY           SKY/WX    TMP DP  RH WIND       PRES   REMARKS
EVANSTON       FAIR      72  27  18 NE5       30.38F
KEMMERER         N/A     68  28  22 E5        30.41F
FORT BRIDGER   FAIR      71  31  22 CALM      30.42S
ROCK SPRINGS   FAIR      71  26  18 N8        30.38F
DIXON          FAIR      73  24  16 N14G20    30.37S
RAWLINS        FAIR      69  26  20 N10       30.39F
SARATOGA       FAIR      68  28  22 NW6G17    30.39S
LARAMIE        FAIR      67  28  23 NE8       30.37F
CHEYENNE       FAIR      68  38  33 E5        30.36F
TORRINGTON     FAIR      72  29  20 CALM      30.30F
PINE BLUFFS    CLOUDY    66  36  32 N3        30.35S

$$




USA.gov is the U.S. government's official web portal to all federal, state and local government web resources and services.